Location: Newark
(30.0333°N, 31.2167°E)
Time: 14:27:59
(UTC+00:00)

Tiros 1 despin weight - Pass Details

Date: 27 January 2020
Orbit: 594 x 642 km, 48.2° (Epoch: 22 February)

Event Time Altitude Azimuth Distance (km) Brightness Sun altitude
Rises 13:40:43 0° 322° (NW) 2,909 ? 19.4°
Reaches altitude 10° 13:43:26 10° 337° (NNW) 2,009 ? 19.0°
Maximum altitude 13:47:08 23° 30° (NNE) 1,354 ? 18.3°
Drops below altitude 10° 13:50:49 10° 82° (E) 2,021 ? 17.6°
Sets 13:53:34 0° 97° (E) 2,932 ? 17.2°
